This is the latest recevied weather packets stored in our database for station/object N0NPO. If no packets are shown the sender has not sent any weather packets the latest 10 day(s).
| Time | Temp. | Humidity | Pressure | Rain* | Wind** | Luminosity | Snow |
|---|---|---|---|---|---|---|---|
| 1778208990 | 15° C | 1% | 1013.4 hPa | 0 mm | - | 0 W/m² | - |
| 1778208687 | 14.44° C | 1% | 1013.3 hPa | 0 mm | - | 0 W/m² | - |
| 1778208382 | 14.44° C | 1% | 1013.3 hPa | 0 mm | - | 0 W/m² | - |
| 1778208080 | 13.89° C | 1% | 1013.1 hPa | 0 mm | - | 0 W/m² | - |
| 1778207776 | 14.44° C | 1% | 1013.2 hPa | 0 mm | - | 0 W/m² | - |
| 1778207474 | 14.44° C | 1% | 1013.3 hPa | 0 mm | - | 0 W/m² | - |
| 1778207169 | 13.89° C | 1% | 1013.3 hPa | 0 mm | - | 0 W/m² | - |
| 1778206867 | 13.89° C | 1% | 1013.1 hPa | 0 mm | - | 0 W/m² | - |
| 1778206562 | 13.89° C | 1% | 1013.1 hPa | 0 mm | - | 0 W/m² | - |
| 1778206258 | 13.89° C | 1% | 1013.1 hPa | 0 mm | - | 0 W/m² | - |
| 1778205956 | 14.44° C | 1% | 1013 hPa | 0 mm | - | 0 W/m² | - |
| 1778205654 | 14.44° C | 1% | 1013 hPa | 0 mm | - | 0 W/m² | - |
| 1778205351 | 14.44° C | 1% | 1012.9 hPa | 0 mm | - | 0 W/m² | - |
| 1778205048 | 14.44° C | 1% | 1013 hPa | 0 mm | - | 0 W/m² | - |
| 1778204744 | 14.44° C | 1% | 1012.9 hPa | 0 mm | - | 2 W/m² | - |
| 1778204441 | 14.44° C | 1% | 1012.9 hPa | 0 mm | - | 7 W/m² | - |
| 1778204137 | 14.44° C | 1% | 1013 hPa | 0 mm | - | 12 W/m² | - |
| 1778203834 | 14.44° C | 1% | 1012.9 hPa | 0 mm | - | 13 W/m² | - |
| 1778203531 | 15° C | 1% | 1013 hPa | 0 mm | - | 17 W/m² | - |
| 1778203229 | 15° C | 1% | 1012.7 hPa | 0 mm | - | 18 W/m² | - |
| 1778202927 | 15.56° C | 1% | 1012.9 hPa | 0 mm | - | 22 W/m² | - |
| 1778202624 | 16.11° C | 1% | 1012.7 hPa | 0 mm | - | 26 W/m² | - |
| 1778202320 | 16.11° C | 1% | 1012.7 hPa | 0 mm | - | 32 W/m² | - |
| 1778202018 | 16.67° C | 1% | 1012.6 hPa | 0 mm | - | 34 W/m² | - |
| 1778201714 | 17.22° C | 1% | 1012.7 hPa | 0 mm | - | 46 W/m² | - |
* Rain latest hour (hover to see other rain measurements)
** Current wind speed in m/s (hover to see current wind gust speed)